{"data":{"norad_id":50823,"epoch":"2026-09-20T00:08:49.180992Z","epoch_age_seconds":90919,"freshness":"FRESH","line1":"1 50823U 22001W   26263.00612478  .00001120  00000+0  44290-4 0  9996","line2":"2 50823  53.1610   4.3743 0001076 109.2804 250.8315 15.34391784259910","mean_motion":15.34391784,"eccentricity":0.0001076,"inclination_deg":53.161,"raan_deg":4.3743,"arg_perigee_deg":109.2804,"mean_anomaly_deg":250.8315,"bstar":4.429e-5,"rev_number":25991,"period_min":93.848260595222,"perigee_km":461.9915829621,"apogee_km":463.46373703693,"semimajor_km":6840.8646599995,"source":"CELESTRAK","updated_at":"2026-09-20T09:00:39.578675Z"}}